DC4AT Weather Reports


Display with metric or nautical units.
time (UTC)temp
F
wind
direction
speed
MPH
gust
MPH
rain 1hr
in
rain 24hr
in
rain mn
in
humidity
%
barometer
mb
20260510151316 68 319 2.0 4.0 0.00 0.00 0.00 52 1009.3
20260510150316 69 313 2.0 6.0 0.00 0.00 0.00 51 1009.3
20260510145316 69 298 3.0 5.0 0.00 0.00 0.00 52 1009.4
20260510144317 68 230 2.0 7.0 0.00 0.00 0.00 52 1009.7
20260510143317 68 329 3.0 5.0 0.00 0.00 0.00 53 1009.9
20260510142317 68 338 3.0 4.0 0.00 0.00 0.00 52 1010.0
20260510141317 68 325 3.0 4.0 0.00 0.00 0.00 52 1010.1
20260510140317 69 342 3.0 6.0 0.00 0.00 0.00 50 1010.3
20260510135317 69 330 3.0 6.0 0.00 0.00 0.00 51 1010.4
20260510134317 68 348 3.0 8.0 0.00 0.00 0.00 50 1010.5
20260510133317 68 336 2.0 3.0 0.00 0.00 0.00 51 1010.5
20260510132317 68 338 2.0 4.0 0.00 0.00 0.00 50 1010.6
20260510131317 69 5 1.0 4.0 0.00 0.00 0.00 54 1010.8
20260510130317 68 333 2.0 4.0 0.00 0.00 0.00 55 1011.0
20260510125317 68 11 3.0 4.0 0.00 0.00 0.00 57 1011.0
20260510124317 69 334 2.0 4.0 0.00 0.00 0.00 55 1011.0
20260510123317 69 256 3.0 8.0 0.00 0.00 0.00 53 1011.2
20260510122317 69 280 4.0 8.0 0.00 0.00 0.00 53 1011.3
20260510121317 68 234 3.0 4.0 0.00 0.00 0.00 57 1011.3
20260510120317 67 246 3.0 7.0 0.00 0.00 0.00 57 1011.5
20260510115317 67 315 3.0 7.0 0.00 0.00 0.00 56 1011.7
20260510114317 67 321 2.0 4.0 0.00 0.00 0.00 58 1011.7
20260510113317 67 347 2.0 3.0 0.00 0.00 0.00 58 1011.8
20260510112317 66 101 2.0 6.0 0.00 0.00 0.00 59 1011.9
20260510111317 66 36 2.0 7.0 0.00 0.00 0.00 60 1012.1
20260510110317 66 42 2.0 3.0 0.00 0.00 0.00 61 1012.2
20260510105317 65 315 1.0 5.0 0.00 0.00 0.00 60 1012.3
20260510104317 65 36 2.0 5.0 0.00 0.00 0.00 61 1012.4
20260510103317 65 226 2.0 4.0 0.00 0.00 0.00 63 1012.5
20260510102317 65 26 2.0 7.0 0.00 0.00 0.00 64 1012.6
20260510101317 64 296 2.0 4.0 0.00 0.00 0.00 64 1012.7
20260510100317 64 46 2.0 6.0 0.00 0.00 0.00 67 1012.8
20260510095317 64 49 2.0 5.0 0.00 0.00 0.00 67 1012.8
20260510094317 63 34 3.0 5.0 0.00 0.00 0.00 70 1013.0
20260510093317 63 309 2.0 4.0 0.00 0.00 0.00 69 1013.2
20260510092317 62 37 1.0 3.0 0.00 0.00 0.00 71 1013.1
20260510091317 61 53 2.0 3.0 0.00 0.00 0.00 75 1013.2
20260510090317 60 42 3.0 6.0 0.00 0.00 0.00 72 1013.4
20260510085317 60 0 2.0 4.0 0.00 0.00 0.00 74 1013.4
20260510084317 59 79 2.0 8.0 0.00 0.00 0.00 73 1013.5
20260510083317 59 5 2.0 5.0 0.00 0.00 0.00 75 1013.6
20260510082317 58 46 2.0 5.0 0.00 0.00 0.00 76 1013.6
20260510081317 58 34 3.0 6.0 0.00 0.00 0.00 76 1013.6
20260510080317 57 17 1.0 3.0 0.00 0.00 0.00 76 1013.7
20260510075317 56 87 0.0 4.0 0.00 0.00 0.00 76 1013.8
20260510074317 56 33 0.0 2.0 0.00 0.00 0.00 77 1013.8
20260510073317 55 178 1.0 3.0 0.00 0.00 0.00 78 1014.0
20260510072318 54 210 0.0 0.0 0.00 0.00 0.00 79 1014.0
20260510071317 54 207 0.0 0.0 0.00 0.00 0.00 80 1014.1
20260510070318 53 204 1.0 3.0 0.00 0.00 0.00 80 1014.3
20260510065318 53 311 1.0 3.0 0.00 0.00 0.00 80 1014.3
20260510064318 52 346 1.0 2.0 0.00 0.00 0.00 81 1014.4
20260510063318 51 291 0.0 2.0 0.00 0.00 0.00 83 1014.3
20260510062318 51 291 1.0 3.0 0.00 0.00 0.00 84 1014.3
20260510061318 51 16 1.0 3.0 0.00 0.00 0.00 84 1014.4
20260510060318 51 16 1.0 3.0 0.00 0.00 0.00 85 1014.5
20260510055318 50 22 1.0 3.0 0.00 0.00 0.00 86 1014.5
20260510054318 48 45 0.0 0.0 0.00 0.00 0.00 87 1014.5
20260510053318 48 271 0.0 2.0 0.00 0.00 0.00 86 1014.6
20260510052318 47 257 0.0 0.0 0.00 0.00 0.00 86 1014.7
20260510051318 46 253 0.0 0.0 0.00 0.00 0.00 84 1014.6
20260510050318 44 252 0.0 0.0 0.00 0.00 0.00 85 1014.7
20260510045318 44 253 0.0 0.0 0.00 0.00 0.00 85 1014.7
20260510044318 43 254 0.0 0.0 0.00 0.00 0.00 86 1014.8
20260510043318 44 155 0.0 0.0 0.00 0.00 0.00 86 1014.8
20260510042318 44 155 0.0 0.0 0.00 0.00 0.00 86 1014.8
20260510041318 44 154 1.0 3.0 0.00 0.00 0.00 85 1014.8
20260510040318 44 188 1.0 1.0 0.00 0.00 0.00 86 1014.9
20260510035318 43 187 1.0 3.0 0.00 0.00 0.00 86 1014.9
20260510034318 44 231 1.0 4.0 0.00 0.00 0.00 87 1015.1
20260510033318 44 138 0.0 0.0 0.00 0.01 0.00 86 1014.9
20260510032318 44 138 0.0 0.0 0.00 0.01 0.00 86 1015.2
20260510031318 44 137 0.0 0.0 0.00 0.01 0.00 87 1015.1
20260510030318 44 137 1.0 1.0 0.00 0.01 0.00 87 1015.1
20260510025318 45 120 1.0 3.0 0.00 0.01 0.00 86 1015.2
20260510024318 44 157 0.0 0.0 0.00 0.01 0.00 87 1015.2
20260510023318 45 157 0.0 1.0 0.00 0.01 0.00 87 1015.4
20260510022318 45 73 0.0 2.0 0.00 0.01 0.00 87 1015.4
20260510021318 45 325 0.0 0.0 0.00 0.01 0.00 87 1015.5
20260510020318 45 325 0.0 0.0 0.00 0.01 0.00 87 1015.5
20260510015318 45 325 0.0 0.0 0.00 0.01 0.00 87 1015.7
20260510014318 45 325 0.0 0.0 0.00 0.01 0.00 86 1015.7
20260510013318 46 325 0.0 0.0 0.00 0.01 0.00 86 1015.8
20260510012318 47 325 0.0 0.0 0.00 0.01 0.00 85 1015.8
20260510011318 47 24 1.0 2.0 0.00 0.01 0.00 85 1015.8
20260510010318 47 58 1.0 4.0 0.00 0.01 0.00 84 1015.8
20260510005318 48 95 3.0 8.0 0.00 0.01 0.00 84 1015.7
20260510004318 48 65 4.0 8.0 0.00 0.01 0.00 84 1015.8
20260510003318 48 73 3.0 8.0 0.00 0.01 0.00 84 1015.9
20260510002318 48 89 3.0 7.0 0.00 0.01 0.00 84 1016.2
20260510001318 48 84 3.0 5.0 0.00 0.01 0.00 84 1016.5
20260510000319 48 77 3.0 5.0 0.00 0.01 0.00 84 1016.6
20260509235319 48 98 4.0 9.0 0.00 0.01 0.00 84 1016.5
20260509234319 48 94 3.0 4.0 0.00 0.01 0.00 84 1016.7
20260509233319 48 109 4.0 8.0 0.00 0.01 0.00 85 1016.8
20260509232319 48 82 3.0 8.0 0.00 0.01 0.00 85 1016.9
20260509231319 48 90 4.0 7.0 0.00 0.01 0.00 85 1017.0
20260509230319 48 76 3.0 7.0 0.00 0.01 0.00 85 1017.0
20260509225319 49 96 2.0 4.0 0.00 0.01 0.00 85 1017.3
20260509224319 49 84 1.0 5.0 0.00 0.01 0.00 84 1017.3
20260509223319 50 81 1.0 2.0 0.00 0.01 0.00 83 1017.2
20260509222319 50 86 4.0 6.0 0.00 0.01 0.00 83 1017.3
20260509221319 50 102 3.0 7.0 0.00 0.01 0.01 83 1017.3
20260509220319 50 103 3.0 7.0 0.00 0.01 0.01 83 1017.7
20260509215319 50 88 3.0 7.0 0.00 0.01 0.01 82 1017.7
20260509214319 51 88 2.0 5.0 0.00 0.01 0.01 81 1017.8
20260509213319 51 98 1.0 2.0 0.00 0.01 0.01 79 1017.8
20260509212319 52 74 2.0 4.0 0.00 0.01 0.01 79 1017.7
20260509211319 52 93 3.0 5.0 0.00 0.01 0.01 78 1017.8
20260509210319 52 74 4.0 8.0 0.00 0.01 0.01 78 1017.6
20260509205319 52 81 4.0 9.0 0.00 0.01 0.01 79 1017.8
20260509204319 52 68 4.0 8.0 0.00 0.01 0.01 79 1017.9
20260509203319 52 97 3.0 6.0 0.00 0.01 0.01 80 1018.1
20260509202319 52 109 3.0 7.0 0.00 0.01 0.01 80 1018.1
20260509201319 53 94 3.0 5.0 0.00 0.01 0.01 79 1018.1
20260509200319 53 95 4.0 7.0 0.00 0.01 0.01 79 1017.9
20260509195319 53 82 3.0 8.0 0.00 0.01 0.01 79 1017.8
20260509194319 53 95 3.0 6.0 0.00 0.01 0.01 79 1017.9
20260509193319 53 84 4.0 7.0 0.00 0.01 0.01 79 1017.8
20260509192319 54 78 2.0 7.0 0.00 0.01 0.01 79 1017.7
20260509191319 54 107 0.0 3.0 0.00 0.01 0.01 79 1017.8
20260509190319 55 107 1.0 3.0 0.00 0.01 0.01 78 1017.7
20260509185319 55 99 2.0 5.0 0.00 0.01 0.01 77 1017.5
20260509184319 56 79 3.0 4.0 0.00 0.01 0.01 76 1017.4
20260509183319 57 88 2.0 4.0 0.00 0.01 0.01 74 1017.4
20260509182319 57 76 3.0 4.0 0.00 0.01 0.01 73 1017.3
20260509181319 58 80 4.0 5.0 0.00 0.01 0.01 72 1017.3
20260509180319 58 90 4.0 7.0 0.00 0.01 0.01 70 1017.2
20260509175319 58 86 4.0 7.0 0.00 0.01 0.01 70 1017.3
20260509174319 58 71 3.0 7.0 0.00 0.01 0.01 70 1017.4
20260509173319 59 67 4.0 5.0 0.00 0.01 0.01 68 1017.4
20260509172319 59 46 5.0 10.0 0.00 0.01 0.01 67 1017.2
20260509171319 59 45 4.0 9.0 0.00 0.01 0.01 66 1017.4
20260509170319 60 75 3.0 6.0 0.00 0.01 0.01 65 1017.4
20260509165319 60 56 2.0 4.0 0.00 0.01 0.01 65 1017.3
20260509164320 60 54 1.0 8.0 0.00 0.01 0.01 63 1017.5
20260509163320 60 46 2.0 3.0 0.00 0.01 0.01 63 1017.5
20260509162320 61 38 1.0 3.0 0.00 0.01 0.01 63 1017.6
20260509161320 61 39 2.0 3.0 0.00 0.01 0.01 62 1017.6
20260509160320 61 32 3.0 5.0 0.00 0.01 0.01 60 1017.6
20260509155320 62 32 3.0 9.0 0.00 0.01 0.01 58 1017.8
20260509154320 63 355 2.0 6.0 0.00 0.01 0.01 58 1017.8
20260509153320 64 329 2.0 4.0 0.00 0.01 0.01 57 1017.9
20260509152320 63 290 4.0 8.0 0.00 0.01 0.01 55 1017.8